www.pogodaiklimat.ru

Погода и климат >> Архив погоды >> Ирак >> Rifai


ПОГОДА в Rifai

  • Прогноз погоды в Rifai
  • Монитор погоды в Rifai
  • Климат города

АРХИВ ПОГОДЫ в Rifai

Время (UTC), дата Ветер
(напр.,м/с)
 
Видим.   Явления Облачность Т
(С)
Тd
(С)
f
(%)
Тe
(С)
Тes
(С)
Комфортность P
(гПа)
Po
(гПа)
Тmin
(С)
Tmax
(С)
R
(мм)
R24
(мм)
S
(см)
12 18.02 З 5 900 м пыль {ливн. осадки} ясно +19.0 +6.6 44 +19 +22 1010.9 1011.0
15 18.02 штиль 0 700 м пыль {туман} ясно +18.4 +8.8 54 +19 +19 1011.7 1012.0
18 18.02 ЮВ 4 600 м пыль {туман} ясно +17.2 +9.1 59 +17 +17 1012.2 1012.0 +20.2 0.5
21 18.02 ЮВ 2 800 м в посл. час дождь {туман} 10/0
[As op]
+15.8 +10.5 71 +16 +16 1011.9 1012.0
00 19.02 Ю 3 700 м пыль {дождь, туман} 10/0
[As op]
+15.8 +9.6 67 +15 +15 1011.0 1011.0
06 19.02 СЗ 2 2000 м дымка {туман} 3/0
[Ac trans]
+14.2 +10.8 80 +14 +18 1013.7 1014.0 +13.2 2
09 19.02 З 2 10 км 3/3 840 м
[Cu hum]
+18.2 +6.5 46 +19 +27 1014.1 1014.0
12 19.02 СЗ 4 10 км 5/5 840 м
[Cu med, cong]
+20.2 +3.9 34 +21 +22 комфорт 1013.2 1013.0
15 19.02 З 4 10 км ясно +18.4 +5.7 43 +18 +18 1014.9 1015.0
18 19.02 СЗ 2 10 км ясно +15.4 +7.8 60 +15 +15 1016.4 1016.0 +20.4
21 19.02 З 2 10 км ясно +13.4 +7.2 66 +13 +13 1016.8 1017.0
00 20.02 СЗ 2 10 км ясно +11.4 +7.6 77 +10 +10 1016.1 1016.0
03 20.02 З 2 10 км 3/0
[Ac trans]
+10.6 +7.7 82 +9 +9 1017.5 1018.0
06 20.02 штиль 0 10 км 9/0
[As op]
+13.2 +9.2 77 +13 +15 1018.0 1018.0 +9.6
09 20.02 штиль 0 10 км 9/9
[Cu med, cong Ci sp]
+18.0 +9.6 58 +18 +20 1017.9 1018.0
12 20.02 штиль 0 10 км 8/0
[Cs]
+19.2 +8.4 50 +20 +26 1015.7 1016.0
15 20.02 штиль 0 10 км ясно +18.4 +9.2 55 +19 +19 1015.5 1016.0
18 20.02 штиль 0 10 км 8/0
[As op]
+16.8 +8.1 56 +17 +17 1015.8 1016.0 +19.8
21 20.02 штиль 0 10 км 9/0
[As op]
+15.0 +9.1 68 +15 +15 1015.8 1016.0
06 21.02 В 2 10 км 8/8 1050 м
[Sc]
+17.6 +10.0 61 +18 +19 1015.4 1015.0 +13.2
09 21.02 В 2 10 км 9/9 1050 м
[Cu Sc]
+22.0 +8.3 41 +23 +24 комфорт 1014.5 1015.0
12 21.02 В 3 10 км 3/0
[Ac trans]
+24.2 +4.5 28 +24 +28 комфорт 1011.7 1012.0
15 21.02 В 3 10 км 5/0
[Ac trans]
+21.4 +8.5 44 +23 +23 комфорт 1011.3 1011.0
18 21.02 штиль 0 10 км 4/0
[Ac trans]
+18.6 +7.6 49 +19 +19 1011.6 1012.0 +24.4
21 21.02 штиль 0 10 км ясно +15.8 +10.1 69 +16 +16 1011.6 1012.0
00 22.02 штиль 0 10 км ясно +13.8 +7.2 64 +14 +14 1010.2 1010.0
03 22.02 штиль 0 10 км 6/0
[As trans]
+12.6 +7.7 72 +12 +12 1010.0 1010.0
06 22.02 В 3 10 км 6/0
[As op]
+16.4 +7.6 56 +16 +19 736.8 736.7 +12.0
09 22.02 В 3 10 км 10/0
[As op]
+21.2 +8.2 43 +22 +24 комфорт 600.2 600.0
12 22.02 штиль 0 10 км 4/0
[As trans]
+24.4 +8.3 36 +25 +31 комфорт 1009.1 1009.0
18 22.02 штиль 0 10 км ясно +16.0 +10.0 68 +16 +16 1010.1 1010.0 +24.4
21 22.02 В 2 10 км ясно +16.2 +8.8 62 +16 +16 1010.7 1011.0
06 23.02 В 1 5000 м мгла 6/6 900 м
[Sc]
+16.6 +11.0 69 +17 +20 1012.2 1012.0 +12.4
12 23.02 ЮВ 2 10 км 10/10 1050 м
[]
+21.2 +10.1 49 +23 +23 комфорт 1010.0 1010.0
15 23.02 штиль 0 8000 м слабый дождь 10/4 1050 м
[Sc As op]
+20.0 +12.1 60 +21 +21 комфорт 1010.0 1010.0
21 23.02 В 2 10 км 6/6 1050 м
[Sc]
+16.8 +11.4 70 +17 +17 1009.5 1010.0
00 24.02 В 4 10 км 5/5 1050 м
[Sc]
+15.8 +10.9 73 +15 +15 1008.2 1008.0
03 24.02 В 4 10 км 6/6 1050 м
[Sc]
+14.2 +10.3 77 +13 +13 1006.7 1007.0
09 24.02 З 5 10 км 9/9 1050 м
[Cu Sc]
+16.8 +10.8 68 +16 +17 1008.1 1008.0
21 24.02 штиль 0 10 км 9/9 1050 м
[Cu Sc]
+17.0 +12.7 76 +17 +17 1009.8 1010.0
00 25.02 СЗ 2 10 км 6/6 1050 м
[Sc]
+15.4 +11.7 79 +15 +15 1009.5 1010.0

 

Местоположение метеостанции Rifai (Ирак): широта 31.72 долгота 46.10 высота над уровнем моря 6 м.

В архиве по умолчанию представлена погода в Rifai за последнюю неделю. Архивные данные за месяц целиком и за предыдущие месяцы, начиная с января 2011 года, Вы можете получить, выбрав интересующий диапазон дат из раскрывающегося списка и нажав кнопку "Ввод!".

Внимание! Время в таблицах - всемирное. Для получения местного времени необходимо прибавить поправку, которая в Rifai равна 3 ч.

Смотрите также архив погоды в соседних городах и на ближайших метеорологических станциях:

Погода в Kut-Al-Hai (Ирак) (50 км)
Погода в Nasiriya (Ирак) (72 км)
Погода в Samawah (Ирак) (92 км)
Погода в Ubaydah Bin Al Jarrah (Ирак) (92 км)
Погода в Ali Al-Gharbi (Ирак) (102 км)
Погода в Amarah (Ирак) (102 км)
Погода в Diwaniya (Ирак) (110 км)
Погода в Badrah (Ирак) (154 км)
Погода в Azizyah (Ирак) (165 км)
Погода в Najaf (Ирак) (171 км)

Пояснения к столбцам:

Ветер - указаны скорость ветра в м/с - средняя за 10 мин, порывы в срок и между сроками (в фигурных скобках) и направление, откуда дует ветер: С - северный, СВ - северо-восточный, В - восточный, ЮВ - юго-восточный, Ю - южный, ЮЗ - юго-западный, З - западный, СЗ - северо-западный.
Видимость - горизонтальная дальность видимости в метрах или километрах. При видимости от 1 до 10 км при отсутствии осадков обычно наблюдается дымка, при ухудшении видимости до 1 км и менее - туман. В сухую погоду видимость может ухудшаться дымом, пылью или мглою.
Явления - указаны атмосферные явления, наблюдавшиеся в срок или в последний час перед сроком; фигурными скобками обозначены явления, наблюдавшиеся между сроками (за 1-3 часа до срока); квадратными скобками обозначены град или гололедные отложения с указанием их диаметра в мм.
Облачность - указаны через наклонную черту общая и нижняя облачность в баллах и высота нижней границы облаков в метрах; квадратными скобками обозначены формы облаков: Ci - перистые, Cs - перисто-слоистые, Cc - перисто-кучевые, Ac - высококучевые, As - высокослоистые, Sc - слоисто-кучевые, Ns - слоисто-дождевые, Cu - кучевые, Cb - кучево-дождевые. Подробнее классификацию облаков см. в Атласе облаков (PDF).
T - Температура воздуха - температура, измеренная на высоте 2 м над землей.
Td - Температура точки росы - температура, при понижении до которой содержащийся в воздухе водяной пар достигнет насыщения.
f - Относительная влажность воздуха - влажноcть воздуха, измеренная на высоте 2 м над землей.
Te - Эффективная температура - температура, которую ощущает одетый по сезону человек в тени. Характеристика душности погоды. При расчете учитывается влияние влажности воздуха и скорости ветра на теплоощущения человека.
Tes - Эффективная температура на солнце - температура, которую ощущает человек, с поправкой на солнечный нагрев. Характеристика знойности погоды. Зависит от высоты солнца над горизонтом, облачности и скорости ветра. Ночью, в пасмурную погоду, а также при ветре 12 м/с и более поправка равна нулю.
P - Атмосферное давление - приведенное к уровню моря атмосферное давление.
Po - Атмосферное давление - измеренное на уровне метеостанции атмосферное давление.
Tmin - Минимальная температура - минимум температуры воздуха на высоте 2 м над землей.
Tmax - Максимальная температура - максимум температуры воздуха на высоте 2 м над землей.
R - Количество осадков - Количество выпавших осадков за период времени, мм. При наведении курсора мыши на число - период времени, за который выпало указанное количество осадков.
R24 - Количество осадков - Количество выпавших осадков за 24 часа, мм.
S - Снежный покров - Высота снежного покрова, см. При наведении курсора мыши на число - состояние снежного покрова и степень покрытия местности в баллах.